Hourly Data Report for October 23, 2014

All times are specified in Local Standard Time (LST). Add 1 hour to adjust for Daylight Saving Time where and when it is observed.

KITCHENER/WATERLOO
ONTARIO

43°27'39.000" N
80°22'43.000" W
321.60 m
6144239
71368
YKF

Download Data

Hourly Data (October 2014)
Hourly Data Report for October 23, 2014
Temp Definition
°C
Dew Point Temp Definition
°C
Rel Hum Definition
%
Wind Dir Definition
10's deg

Wind Spd Definition
km/h
Visibility Definition
km
Stn Press Definition
kPa
Hmdx Definition


Wind Chill Definition


Weather Definition


TIME
00:00 Legend Double Dagger 1.9 1.3 96 32 8 16.1 98.49     LegendNANA
01:00 Legend Double Dagger 2.0 1.4 96 30 8 16.1 98.46     LegendNANA
02:00 Legend Double Dagger 1.3 1.0 98 30 8 16.1 98.45     LegendNANA
03:00 Legend Double Dagger 1.5 1.1 97 30 8 16.1 98.42     LegendNANA
04:00 Legend Double Dagger 2.3 2.0 98 29 5 16.1 98.43     LegendNANA
05:00 Legend Double Dagger 0.0 -0.3 98 30 5 6.4 98.44   -2 Fog
06:00 Legend Double Dagger 0.6 0.5 99 30 11 16.1 98.41     LegendNANA
07:00 Legend Double Dagger 1.5 1.2 98 29 8 16.1 98.39     LegendNANA
08:00 Legend Double Dagger 4.3 3.4 94 31 9 16.1 98.40     LegendNANA
09:00 Legend Double Dagger 7.9 4.7 80 35 11 16.1 98.40     LegendNANA
10:00 Legend Double Dagger 10.7 5.5 70 32 15 16.1 98.34     LegendNANA
11:00 Legend Double Dagger 13.6 5.6 58 33 17 16.1 98.29     LegendNANA
12:00 Legend Double Dagger 14.9 6.1 55 33 15 16.1 98.21     LegendNANA
13:00 Legend Double Dagger 15.6 6.2 53 32 18 16.1 98.13     LegendNANA
14:00 Legend Double Dagger 15.3 6.1 54 30 18 16.1 98.10     LegendNANA
15:00 Legend Double Dagger 14.9 5.8 54 30 21 16.1 98.06     LegendNANA
16:00 Legend Double Dagger 14.2 5.2 54 30 22 16.1 98.00     LegendNANA
17:00 Legend Double Dagger 12.4 5.6 63 31 13 16.1 98.01     LegendNANA
18:00 Legend Double Dagger 9.1 4.5 73 30 11 16.1 98.03     LegendNANA
19:00 Legend Double Dagger 9.0 5.0 76 33 15 16.1 98.04     LegendNANA
20:00 Legend Double Dagger 6.9 4.6 85 31 11 16.1 98.05     LegendNANA
21:00 Legend Double Dagger 5.3 3.6 89 32 5 16.1 98.05     LegendNANA
22:00 Legend Double Dagger 3.2 2.5 95 30 8 16.1 98.00     LegendNANA
23:00 Legend Double Dagger 2.4 1.8 96 30 11 16.1 97.99     LegendNANA

Notes on Data Quality.

Legend

  • E = Estimated
  • M = Missing
  • NA = Not Available
  • ‡ = Partner data that is not subject to review by the National Climate Archives
Date modified: